Regional Weather Roundup
Issued by NWS

Home | Current Version | Previous Version | Graphics & Text | Print | Product List | Glossary On
Versions: 1 2 3 4 5 6 7 8 9 10 11 12 13 14 15 16 17 18 19 20 21 22 23 24 25 26 27 28 29 30 31 32 33 34 35 36 37 38 39 40 41 42 43 44 45 46 47 48 49 50
921
ASUS43 KLMK 190602
RWRKY
KENTUCKY REGIONAL WEATHER ROUNDUP
NATIONAL WEATHER SERVICE LOUISVILLE KY
100 AM EST SUN NOV 19 2017

NOTE "FAIR" INDICATES FEW OR NO CLOUDS BELOW 12,000 FEET
WITH NO SIGNIFICANT WEATHER AND/OR OBSTRUCTIONS TO VISIBILITY.

KYZ001>023-026-027-061>063-070>075-190700-
WESTERN AND SOUTH CENTRAL KENTUCKY

CITY           SKY/WX    TMP DP  RH WIND       PRES   REMARKS
PADUCAH        CLEAR     42  32  67 NW8       30.02R
HENDERSON      CLOUDY    42  36  79 NW9       30.00R
OWENSBORO      CLOUDY    43  34  70 NW10      29.97R
HOPKINSVILLE   CLOUDY    43  34  69 NW10      29.99R
BOWLING GREEN  CLOUDY    44  39  82 NW8       29.96R
GLASGOW        NOT AVBL
$$

KYZ024-025-028>034-038-045-046-053-190700-
NORTH CENTRAL KENTUCKY

CITY           SKY/WX    TMP DP  RH WIND       PRES   REMARKS
LOUISVILLE/SDF CLOUDY    43  34  70 NW15G24   29.89R
LOUISVILLE/LOU CLOUDY    43  35  73 W14G24    29.88R
FORT KNOX      CLOUDY    41  33  73 W17G23    29.89R
$$

KYZ035>037-039>044-047>052-055>060-089>105-190700-
NORTHEAST KENTUCKY

CITY           SKY/WX    TMP DP  RH WIND       PRES   REMARKS
LEXINGTON      CLOUDY    41  36  82 W17G25    29.84R
COVINGTON      CLOUDY    41  39  93 NW18G30   29.77R
FRANKFORT      CLOUDY    41  36  82 W12G22    29.84R
$$

KYZ054-064>069-076>088-106>120-190700-
SOUTHEAST KENTUCKY

CITY           SKY/WX    TMP DP  RH WIND       PRES   REMARKS
JACKSON        CLOUDY    41  38  89 W10G23    29.79R
LONDON         CLOUDY    42  36  79 NW21G32   29.85R
SOMERSET       CLOUDY    37  36  93 W9G21     29.91R WCI  31
MIDDLESBORO    DRIZZLE   43  40  90 NW6       29.85R
MONTICELLO     CLOUDY    40  37  89 W17G25    29.93R WCI  31
$$





USA.gov is the U.S. government's official web portal to all federal, state and local government web resources and services.